Year,Month,Day,Hour,Minute,Value (Times are PST for temperature in C)
2009,05,23,00,00,9.40
2009,05,23,00,01,9.40
2009,05,23,00,02,9.30
2009,05,23,00,03,9.30
2009,05,23,00,04,9.30
2009,05,23,00,05,9.30
2009,05,23,00,06,9.30
2009,05,23,00,07,9.30
2009,05,23,00,08,9.30
2009,05,23,00,09,9.30
2009,05,23,00,10,9.30
2009,05,23,00,11,9.30
2009,05,23,00,12,9.30
2009,05,23,00,13,9.30
2009,05,23,00,14,9.30
2009,05,23,00,15,9.30
2009,05,23,00,16,9.30
2009,05,23,00,17,9.30
2009,05,23,00,18,9.30
2009,05,23,00,19,9.30
2009,05,23,00,20,9.30
2009,05,23,00,21,9.30
2009,05,23,00,22,9.30
2009,05,23,00,23,9.30
2009,05,23,00,24,9.30
2009,05,23,00,25,9.30
2009,05,23,00,26,9.30
2009,05,23,00,27,9.30
2009,05,23,00,28,9.30
2009,05,23,00,29,9.30
2009,05,23,00,30,9.30
2009,05,23,00,31,9.30
2009,05,23,00,32,9.20
2009,05,23,00,33,9.20
2009,05,23,00,34,9.20
2009,05,23,00,35,9.20
2009,05,23,00,36,9.20
2009,05,23,00,37,9.20
2009,05,23,00,38,9.20
2009,05,23,00,39,9.20
2009,05,23,00,40,9.20
2009,05,23,00,41,9.20
2009,05,23,00,42,9.20
2009,05,23,00,43,9.20
2009,05,23,00,44,9.20
2009,05,23,00,45,9.20
2009,05,23,00,46,9.20
2009,05,23,00,47,9.20
2009,05,23,00,48,9.20
2009,05,23,00,49,9.20
2009,05,23,00,50,9.20
2009,05,23,00,51,9.20
2009,05,23,00,52,9.20
2009,05,23,00,53,9.20
2009,05,23,00,54,9.20
2009,05,23,00,55,9.20
2009,05,23,00,56,9.20
2009,05,23,00,57,9.20
2009,05,23,00,58,9.20
2009,05,23,00,59,9.20
2009,05,23,01,00,9.20
2009,05,23,01,01,9.20
2009,05,23,01,02,9.20
2009,05,23,01,03,9.10
2009,05,23,01,04,9.00
2009,05,23,01,05,9.00
2009,05,23,01,06,9.00
2009,05,23,01,07,9.00
2009,05,23,01,08,9.00
2009,05,23,01,09,9.00
2009,05,23,01,10,9.00
2009,05,23,01,11,8.90
2009,05,23,01,12,8.90
2009,05,23,01,13,8.90
2009,05,23,01,14,8.90
2009,05,23,01,15,8.90
2009,05,23,01,16,8.90
2009,05,23,01,17,8.80
2009,05,23,01,18,8.80
2009,05,23,01,19,8.80
2009,05,23,01,20,8.80
2009,05,23,01,21,8.80
2009,05,23,01,22,8.80
2009,05,23,01,23,8.80
2009,05,23,01,24,8.80
2009,05,23,01,25,8.80
2009,05,23,01,26,8.70
2009,05,23,01,27,8.70
2009,05,23,01,28,8.70
2009,05,23,01,29,8.70
2009,05,23,01,30,8.70
2009,05,23,01,31,8.70
2009,05,23,01,32,8.70
2009,05,23,01,33,8.70
2009,05,23,01,34,8.70
2009,05,23,01,35,8.70
2009,05,23,01,36,8.70
2009,05,23,01,37,8.70
2009,05,23,01,38,8.70
2009,05,23,01,39,8.70
2009,05,23,01,40,8.70
2009,05,23,01,41,8.70
2009,05,23,01,42,8.70
2009,05,23,01,43,8.70
2009,05,23,01,44,8.70
2009,05,23,01,45,8.70
2009,05,23,01,46,8.70
2009,05,23,01,47,8.70
2009,05,23,01,48,8.70
2009,05,23,01,49,8.70
2009,05,23,01,50,8.70
2009,05,23,01,51,8.70
2009,05,23,01,52,8.70
2009,05,23,01,53,8.70
2009,05,23,01,54,8.70
2009,05,23,01,55,8.70
2009,05,23,01,56,8.70
2009,05,23,01,57,8.70
2009,05,23,01,58,8.70
2009,05,23,01,59,8.70
2009,05,23,02,00,8.70
2009,05,23,02,01,8.70
2009,05,23,02,02,8.70
2009,05,23,02,03,8.70
2009,05,23,02,04,8.70
2009,05,23,02,05,8.70
2009,05,23,02,06,8.70
2009,05,23,02,07,8.70
2009,05,23,02,08,8.70
2009,05,23,02,09,8.70
2009,05,23,02,10,8.70
2009,05,23,02,11,8.70
2009,05,23,02,12,8.60
2009,05,23,02,13,8.60
2009,05,23,02,14,8.60
2009,05,23,02,15,8.60
2009,05,23,02,16,8.60
2009,05,23,02,17,8.60
2009,05,23,02,18,8.60
2009,05,23,02,19,8.60
2009,05,23,02,20,8.60
2009,05,23,02,21,8.60
2009,05,23,02,22,8.60
2009,05,23,02,23,8.60
2009,05,23,02,24,8.60
2009,05,23,02,25,8.60
2009,05,23,02,26,8.60
2009,05,23,02,27,8.50
2009,05,23,02,28,8.50
2009,05,23,02,29,8.50
2009,05,23,02,30,8.50
2009,05,23,02,31,8.50
2009,05,23,02,32,8.60
2009,05,23,02,33,8.60
2009,05,23,02,34,8.60
2009,05,23,02,35,8.50
2009,05,23,02,36,8.50
2009,05,23,02,37,8.50
2009,05,23,02,38,8.50
2009,05,23,02,39,8.50
2009,05,23,02,40,8.50
2009,05,23,02,41,8.50
2009,05,23,02,42,8.50
2009,05,23,02,43,8.50
2009,05,23,02,44,8.50
2009,05,23,02,45,8.50
2009,05,23,02,46,8.50
2009,05,23,02,47,8.50
2009,05,23,02,48,8.50
2009,05,23,02,49,8.50
2009,05,23,02,50,8.50
2009,05,23,02,51,8.50
2009,05,23,02,52,8.50
2009,05,23,02,53,8.50
2009,05,23,02,54,8.40
2009,05,23,02,55,8.40
2009,05,23,02,56,8.40
2009,05,23,02,57,8.40
2009,05,23,02,58,8.40
2009,05,23,02,59,8.40
2009,05,23,03,00,8.40
2009,05,23,03,01,8.40
2009,05,23,03,02,8.40
2009,05,23,03,03,8.40
2009,05,23,03,04,8.40
2009,05,23,03,05,8.40
2009,05,23,03,06,8.40
2009,05,23,03,07,8.40
2009,05,23,03,08,8.40
2009,05,23,03,09,8.30
2009,05,23,03,10,8.30
2009,05,23,03,11,8.30
2009,05,23,03,12,8.30
2009,05,23,03,13,8.30
2009,05,23,03,14,8.30
2009,05,23,03,15,8.30
2009,05,23,03,16,8.30
2009,05,23,03,17,8.30
2009,05,23,03,18,8.30
2009,05,23,03,19,8.30
2009,05,23,03,20,8.30
2009,05,23,03,21,8.20
2009,05,23,03,22,8.20
2009,05,23,03,23,8.20
2009,05,23,03,24,8.20
2009,05,23,03,25,8.20
2009,05,23,03,26,8.20
2009,05,23,03,27,8.20
2009,05,23,03,28,8.20
2009,05,23,03,29,8.20
2009,05,23,03,30,8.20
2009,05,23,03,31,8.20
2009,05,23,03,32,8.20
2009,05,23,03,33,8.20
2009,05,23,03,34,8.20
2009,05,23,03,35,8.20
2009,05,23,03,36,8.20
2009,05,23,03,37,8.20
2009,05,23,03,38,8.20
2009,05,23,03,39,8.20
2009,05,23,03,40,8.20
2009,05,23,03,41,8.20
2009,05,23,03,42,8.20
2009,05,23,03,43,8.20
2009,05,23,03,44,8.20
2009,05,23,03,45,8.20
2009,05,23,03,46,8.20
2009,05,23,03,47,8.20
2009,05,23,03,48,8.20
2009,05,23,03,49,8.20
2009,05,23,03,50,8.20
2009,05,23,03,51,8.20
2009,05,23,03,52,8.20
2009,05,23,03,53,8.20
2009,05,23,03,54,8.20
2009,05,23,03,55,8.20
2009,05,23,03,56,8.20
2009,05,23,03,57,8.10
2009,05,23,03,58,8.10
2009,05,23,03,59,8.10
2009,05,23,04,00,8.10
2009,05,23,04,01,8.10
2009,05,23,04,02,8.10
2009,05,23,04,03,8.00
2009,05,23,04,04,8.00
2009,05,23,04,05,8.00
2009,05,23,04,06,8.00
2009,05,23,04,07,8.00
2009,05,23,04,08,8.10
2009,05,23,04,09,8.10
2009,05,23,04,10,8.00
2009,05,23,04,11,8.00
2009,05,23,04,12,8.00
2009,05,23,04,13,8.00
2009,05,23,04,14,8.00
2009,05,23,04,15,7.90
2009,05,23,04,16,7.90
2009,05,23,04,17,7.90
2009,05,23,04,18,7.90
2009,05,23,04,19,7.80
2009,05,23,04,20,7.80
2009,05,23,04,21,7.80
2009,05,23,04,22,7.70
2009,05,23,04,23,7.70
2009,05,23,04,24,7.70
2009,05,23,04,25,7.70
2009,05,23,04,26,7.60
2009,05,23,04,27,7.60
2009,05,23,04,28,7.60
2009,05,23,04,29,7.60
2009,05,23,04,30,7.60
2009,05,23,04,31,7.50
2009,05,23,04,32,7.50
2009,05,23,04,33,7.50
2009,05,23,04,34,7.50
2009,05,23,04,35,7.40
2009,05,23,04,36,7.40
2009,05,23,04,37,7.40
2009,05,23,04,38,7.30
2009,05,23,04,39,7.30
2009,05,23,04,40,7.30
2009,05,23,04,41,7.30
2009,05,23,04,42,7.30
2009,05,23,04,43,7.30
2009,05,23,04,44,7.30
2009,05,23,04,45,7.30
2009,05,23,04,46,7.30
2009,05,23,04,47,7.30
2009,05,23,04,48,7.30
2009,05,23,04,49,7.30
2009,05,23,04,50,7.30
2009,05,23,04,51,7.30
2009,05,23,04,52,7.30
2009,05,23,04,53,7.30
2009,05,23,04,54,7.30
2009,05,23,04,55,7.30
2009,05,23,04,56,7.30
2009,05,23,04,57,7.30
2009,05,23,04,58,7.30
2009,05,23,04,59,7.20
2009,05,23,05,00,7.20
2009,05,23,05,01,7.20
2009,05,23,05,02,7.20
2009,05,23,05,03,7.20
2009,05,23,05,04,7.20
2009,05,23,05,05,7.20
2009,05,23,05,06,7.20
2009,05,23,05,07,7.20
2009,05,23,05,08,7.30
2009,05,23,05,09,7.30
2009,05,23,05,10,7.30
2009,05,23,05,11,7.30
2009,05,23,05,12,7.30
2009,05,23,05,13,7.30
2009,05,23,05,14,7.30
2009,05,23,05,15,7.20
2009,05,23,05,16,7.20
2009,05,23,05,17,7.20
2009,05,23,05,18,7.20
2009,05,23,05,19,7.30
2009,05,23,05,20,7.30
2009,05,23,05,21,7.30
2009,05,23,05,22,7.20
2009,05,23,05,23,7.20
2009,05,23,05,24,7.20
2009,05,23,05,25,7.10
2009,05,23,05,26,7.10
2009,05,23,05,27,7.00
2009,05,23,05,28,7.00
2009,05,23,05,29,6.90
2009,05,23,05,30,6.90
2009,05,23,05,31,6.90
2009,05,23,05,32,6.90
2009,05,23,05,33,6.90
2009,05,23,05,34,6.90
2009,05,23,05,35,6.90
2009,05,23,05,36,6.90
2009,05,23,05,37,6.80
2009,05,23,05,38,6.80
2009,05,23,05,39,6.80
2009,05,23,05,40,6.90
2009,05,23,05,41,6.90
2009,05,23,05,42,6.90
2009,05,23,05,43,6.90
2009,05,23,05,44,6.90
2009,05,23,05,45,7.00
2009,05,23,05,46,7.00
2009,05,23,05,47,7.00
2009,05,23,05,48,7.10
2009,05,23,05,49,7.10
2009,05,23,05,50,7.10
2009,05,23,05,51,7.10
2009,05,23,05,52,7.20
2009,05,23,05,53,7.30
2009,05,23,05,54,7.30
2009,05,23,05,55,7.30
2009,05,23,05,56,7.30
2009,05,23,05,57,7.30
2009,05,23,05,58,7.30
2009,05,23,05,59,7.30
2009,05,23,06,00,7.30
2009,05,23,06,01,7.30
2009,05,23,06,02,7.30
2009,05,23,06,03,7.30
2009,05,23,06,04,7.30
2009,05,23,06,05,7.30
2009,05,23,06,06,7.30
2009,05,23,06,07,7.30
2009,05,23,06,08,7.30
2009,05,23,06,09,7.30
2009,05,23,06,10,7.30
2009,05,23,06,11,7.30
2009,05,23,06,12,7.30
2009,05,23,06,13,7.30
2009,05,23,06,14,7.30
2009,05,23,06,15,7.40
2009,05,23,06,16,7.40
2009,05,23,06,17,7.50
2009,05,23,06,18,7.50
2009,05,23,06,19,7.60
2009,05,23,06,20,7.60
2009,05,23,06,21,7.70
2009,05,23,06,22,7.70
2009,05,23,06,23,7.70
2009,05,23,06,24,7.70
2009,05,23,06,25,7.70
2009,05,23,06,26,7.60
2009,05,23,06,27,7.60
2009,05,23,06,28,7.60
2009,05,23,06,29,7.70
2009,05,23,06,30,7.70
2009,05,23,06,31,7.80
2009,05,23,06,32,7.80
2009,05,23,06,33,7.80
2009,05,23,06,34,7.80
2009,05,23,06,35,7.80
2009,05,23,06,36,7.80
2009,05,23,06,37,7.80
2009,05,23,06,38,7.80
2009,05,23,06,39,7.80
2009,05,23,06,40,7.80
2009,05,23,06,41,7.80
2009,05,23,06,42,7.80
2009,05,23,06,43,7.90
2009,05,23,06,44,7.90
2009,05,23,06,45,7.90
2009,05,23,06,46,8.00
2009,05,23,06,47,8.00
2009,05,23,06,48,8.00
2009,05,23,06,49,8.10
2009,05,23,06,50,8.20
2009,05,23,06,51,8.20
2009,05,23,06,52,8.20
2009,05,23,06,53,8.20
2009,05,23,06,54,8.20
2009,05,23,06,55,8.30
2009,05,23,06,56,8.30
2009,05,23,06,57,8.30
2009,05,23,06,58,8.40
2009,05,23,06,59,8.40
2009,05,23,07,00,8.40
2009,05,23,07,01,8.50
2009,05,23,07,02,8.50
2009,05,23,07,03,8.50
2009,05,23,07,04,8.50
2009,05,23,07,05,8.60
2009,05,23,07,06,8.60
2009,05,23,07,07,8.60
2009,05,23,07,08,8.70
2009,05,23,07,09,8.70
2009,05,23,07,10,8.70
2009,05,23,07,11,8.70
2009,05,23,07,12,8.80
2009,05,23,07,13,8.80
2009,05,23,07,14,8.90
2009,05,23,07,15,8.90
2009,05,23,07,16,9.00
2009,05,23,07,17,9.00
2009,05,23,07,18,9.00
2009,05,23,07,19,9.10
2009,05,23,07,20,9.10
2009,05,23,07,21,9.10
2009,05,23,07,22,9.10
2009,05,23,07,23,9.10
2009,05,23,07,24,9.20
2009,05,23,07,25,9.20
2009,05,23,07,26,9.20
2009,05,23,07,27,9.20
2009,05,23,07,28,9.20
2009,05,23,07,29,9.20
2009,05,23,07,30,9.20
2009,05,23,07,31,9.20
2009,05,23,07,32,9.20
2009,05,23,07,33,9.30
2009,05,23,07,34,9.30
2009,05,23,07,35,9.30
2009,05,23,07,36,9.40
2009,05,23,07,37,9.40
2009,05,23,07,38,9.40
2009,05,23,07,39,9.40
2009,05,23,07,40,9.50
2009,05,23,07,41,9.50
2009,05,23,07,42,9.60
2009,05,23,07,43,9.60
2009,05,23,07,44,9.70
2009,05,23,07,45,9.70
2009,05,23,07,46,9.70
2009,05,23,07,47,9.70
2009,05,23,07,48,9.70
2009,05,23,07,49,9.70
2009,05,23,07,50,9.70
2009,05,23,07,51,9.70
2009,05,23,07,52,9.70
2009,05,23,07,53,9.70
2009,05,23,07,54,9.70
2009,05,23,07,55,9.70
2009,05,23,07,56,9.70
2009,05,23,07,57,9.70
2009,05,23,07,58,9.70
2009,05,23,07,59,9.70
2009,05,23,08,00,9.70
2009,05,23,08,01,9.70
2009,05,23,08,02,9.70
2009,05,23,08,03,9.80
2009,05,23,08,04,9.80
2009,05,23,08,05,9.80
2009,05,23,08,06,9.90
2009,05,23,08,07,9.90
2009,05,23,08,08,10.10
2009,05,23,08,09,10.10
2009,05,23,08,10,10.10
2009,05,23,08,11,10.20
2009,05,23,08,12,10.30
2009,05,23,08,13,10.40
2009,05,23,08,14,10.60
2009,05,23,08,15,10.70
2009,05,23,08,16,10.80
2009,05,23,08,17,10.80
2009,05,23,08,18,10.90
2009,05,23,08,19,11.00
2009,05,23,08,20,11.10
2009,05,23,08,21,11.10
2009,05,23,08,22,11.10
2009,05,23,08,23,11.10
2009,05,23,08,24,11.10
2009,05,23,08,25,11.10
2009,05,23,08,26,11.10
2009,05,23,08,27,11.20
2009,05,23,08,28,11.30
2009,05,23,08,29,11.40
2009,05,23,08,30,11.50
2009,05,23,08,31,11.60
2009,05,23,08,32,11.60
2009,05,23,08,33,11.60
2009,05,23,08,34,11.60
2009,05,23,08,35,11.60
2009,05,23,08,36,11.60
2009,05,23,08,37,11.60
2009,05,23,08,38,11.60
2009,05,23,08,39,11.60
2009,05,23,08,40,11.60
2009,05,23,08,41,11.60
2009,05,23,08,42,11.60
2009,05,23,08,43,11.40
2009,05,23,08,44,11.30
2009,05,23,08,45,11.20
2009,05,23,08,46,11.00
2009,05,23,08,47,10.90
2009,05,23,08,48,10.90
2009,05,23,08,49,10.90
2009,05,23,08,50,10.90
2009,05,23,08,51,10.90
2009,05,23,08,52,10.90
2009,05,23,08,53,10.90
2009,05,23,08,54,10.80
2009,05,23,08,55,10.70
2009,05,23,08,56,10.70
2009,05,23,08,57,10.60
2009,05,23,08,58,10.60
2009,05,23,08,59,10.60
2009,05,23,09,00,10.50
2009,05,23,09,01,10.40
2009,05,23,09,02,10.40
2009,05,23,09,03,10.50
2009,05,23,09,04,10.60
2009,05,23,09,05,10.60
2009,05,23,09,06,10.60
2009,05,23,09,07,10.60
2009,05,23,09,08,10.60
2009,05,23,09,09,10.60
2009,05,23,09,10,10.60
2009,05,23,09,11,10.60
2009,05,23,09,12,10.60
2009,05,23,09,13,10.70
2009,05,23,09,14,10.70
2009,05,23,09,15,10.70
2009,05,23,09,16,10.80
2009,05,23,09,17,10.90
2009,05,23,09,18,11.00
2009,05,23,09,19,11.10
2009,05,23,09,20,11.10
2009,05,23,09,21,11.10
2009,05,23,09,22,11.20
2009,05,23,09,23,11.20
2009,05,23,09,24,11.20
2009,05,23,09,25,11.20
2009,05,23,09,26,11.20
2009,05,23,09,27,11.20
2009,05,23,09,28,11.20
2009,05,23,09,29,11.10
2009,05,23,09,30,11.10
2009,05,23,09,31,11.10
2009,05,23,09,32,11.10
2009,05,23,09,33,11.20
2009,05,23,09,34,11.20
2009,05,23,09,35,11.30
2009,05,23,09,36,11.30
2009,05,23,09,37,11.20
2009,05,23,09,38,11.20
2009,05,23,09,39,11.10
2009,05,23,09,40,11.10
2009,05,23,09,41,11.10
2009,05,23,09,42,11.10
2009,05,23,09,43,11.10
2009,05,23,09,44,11.10
2009,05,23,09,45,11.10
2009,05,23,09,46,11.10
2009,05,23,09,47,11.10
2009,05,23,09,48,11.10
2009,05,23,09,49,11.10
2009,05,23,09,50,11.10
2009,05,23,09,51,11.10
2009,05,23,09,52,11.00
2009,05,23,09,53,10.90
2009,05,23,09,54,11.00
2009,05,23,09,55,10.90
2009,05,23,09,56,10.90
2009,05,23,09,57,10.90
2009,05,23,09,58,10.90
2009,05,23,09,59,10.90
2009,05,23,10,00,11.00
2009,05,23,10,01,11.10
2009,05,23,10,02,11.10
2009,05,23,10,03,11.10
2009,05,23,10,04,11.00
2009,05,23,10,05,10.90
2009,05,23,10,06,10.90
2009,05,23,10,07,10.90
2009,05,23,10,08,10.90
2009,05,23,10,09,10.90
2009,05,23,10,10,10.90
2009,05,23,10,11,10.90
2009,05,23,10,12,11.00
2009,05,23,10,13,11.20
2009,05,23,10,14,11.30
2009,05,23,10,15,11.30
2009,05,23,10,16,11.40
2009,05,23,10,17,11.40
2009,05,23,10,18,11.60
2009,05,23,10,19,11.60
2009,05,23,10,20,11.60
2009,05,23,10,21,11.70
2009,05,23,10,22,11.80
2009,05,23,10,23,11.80
2009,05,23,10,24,11.70
2009,05,23,10,25,11.80
2009,05,23,10,26,11.80
2009,05,23,10,27,11.80
2009,05,23,10,28,11.80
2009,05,23,10,29,11.80
2009,05,23,10,30,11.90
2009,05,23,10,31,11.90
2009,05,23,10,32,11.90
2009,05,23,10,33,12.00
2009,05,23,10,34,12.00
2009,05,23,10,35,12.10
2009,05,23,10,36,12.10
2009,05,23,10,37,12.00
2009,05,23,10,38,12.00
2009,05,23,10,39,12.10
2009,05,23,10,40,12.10
2009,05,23,10,41,12.10
2009,05,23,10,42,12.10
2009,05,23,10,43,12.10
2009,05,23,10,44,12.20
2009,05,23,10,45,12.20
2009,05,23,10,46,12.20
2009,05,23,10,47,12.20
2009,05,23,10,48,12.30
2009,05,23,10,49,12.30
2009,05,23,10,50,12.50
2009,05,23,10,51,12.40
2009,05,23,10,52,12.40
2009,05,23,10,53,12.50
2009,05,23,10,54,12.50
2009,05,23,10,55,12.50
2009,05,23,10,56,12.50
2009,05,23,10,57,12.50
2009,05,23,10,58,12.50
2009,05,23,10,59,12.40
2009,05,23,11,00,12.40
2009,05,23,11,01,12.40
2009,05,23,11,02,12.50
2009,05,23,11,03,12.60
2009,05,23,11,04,12.70
2009,05,23,11,05,12.60
2009,05,23,11,06,12.60
2009,05,23,11,07,12.50
2009,05,23,11,08,12.40
2009,05,23,11,09,12.30
2009,05,23,11,10,12.30
2009,05,23,11,11,12.30
2009,05,23,11,12,12.20
2009,05,23,11,13,12.10
2009,05,23,11,14,12.00
2009,05,23,11,15,11.90
2009,05,23,11,16,11.90
2009,05,23,11,17,11.80
2009,05,23,11,18,11.70
2009,05,23,11,19,11.70
2009,05,23,11,20,11.70
2009,05,23,11,21,11.80
2009,05,23,11,22,11.80
2009,05,23,11,23,11.80
2009,05,23,11,24,11.80
2009,05,23,11,25,11.80
2009,05,23,11,26,11.80
2009,05,23,11,27,11.80
2009,05,23,11,28,11.90
2009,05,23,11,29,11.90
2009,05,23,11,30,11.90
2009,05,23,11,31,12.10
2009,05,23,11,32,12.20
2009,05,23,11,33,12.10
2009,05,23,11,34,12.00
2009,05,23,11,35,12.00
2009,05,23,11,36,12.00
2009,05,23,11,37,12.00
2009,05,23,11,38,12.00
2009,05,23,11,39,12.00
2009,05,23,11,40,12.00
2009,05,23,11,41,12.10
2009,05,23,11,42,12.10
2009,05,23,11,43,12.10
2009,05,23,11,44,12.10
2009,05,23,11,45,12.20
2009,05,23,11,46,12.30
2009,05,23,11,47,12.40
2009,05,23,11,48,12.40
2009,05,23,11,49,12.30
2009,05,23,11,50,12.30
2009,05,23,11,51,12.30
2009,05,23,11,52,12.30
2009,05,23,11,53,12.30
2009,05,23,11,54,12.30
2009,05,23,11,55,12.20
2009,05,23,11,56,12.30
2009,05,23,11,57,12.20
2009,05,23,11,58,12.20
2009,05,23,11,59,12.30
2009,05,23,12,00,12.30
2009,05,23,12,01,12.40
2009,05,23,12,02,12.50
2009,05,23,12,03,12.60
2009,05,23,12,04,12.60
2009,05,23,12,05,12.60
2009,05,23,12,06,12.50
2009,05,23,12,07,12.40
2009,05,23,12,08,12.40
2009,05,23,12,09,12.50
2009,05,23,12,10,12.60
2009,05,23,12,11,12.50
2009,05,23,12,12,12.50
2009,05,23,12,13,12.50
2009,05,23,12,14,12.40
2009,05,23,12,15,12.40
2009,05,23,12,16,12.40
2009,05,23,12,17,12.40
2009,05,23,12,18,12.40
2009,05,23,12,19,12.40
2009,05,23,12,20,12.50
2009,05,23,12,21,12.60
2009,05,23,12,22,12.70
2009,05,23,12,23,12.80
2009,05,23,12,24,12.90
2009,05,23,12,25,13.10
2009,05,23,12,26,13.00
2009,05,23,12,27,13.00
2009,05,23,12,28,12.80
2009,05,23,12,29,12.70
2009,05,23,12,30,12.60
2009,05,23,12,31,12.50
2009,05,23,12,32,12.50
2009,05,23,12,33,12.60
2009,05,23,12,34,12.60
2009,05,23,12,35,12.60
2009,05,23,12,36,12.70
2009,05,23,12,37,12.80
2009,05,23,12,38,12.90
2009,05,23,12,39,13.00
2009,05,23,12,40,13.00
2009,05,23,12,41,13.00
2009,05,23,12,42,13.00
2009,05,23,12,43,13.00
2009,05,23,12,44,13.10
2009,05,23,12,45,13.10
2009,05,23,12,46,13.10
2009,05,23,12,47,13.00
2009,05,23,12,48,12.80
2009,05,23,12,49,12.70
2009,05,23,12,50,12.60
2009,05,23,12,51,12.80
2009,05,23,12,52,12.90
2009,05,23,12,53,13.00
2009,05,23,12,54,13.10
2009,05,23,12,55,13.10
2009,05,23,12,56,13.10
2009,05,23,12,57,13.10
2009,05,23,12,58,13.20
2009,05,23,12,59,13.30
2009,05,23,13,00,13.30
2009,05,23,13,01,13.30
2009,05,23,13,02,13.30
2009,05,23,13,03,13.30
2009,05,23,13,04,13.40
2009,05,23,13,05,13.30
2009,05,23,13,06,13.10
2009,05,23,13,07,13.00
2009,05,23,13,08,12.80
2009,05,23,13,09,12.60
2009,05,23,13,10,12.50
2009,05,23,13,11,12.50
2009,05,23,13,12,12.50
2009,05,23,13,13,12.60
2009,05,23,13,14,12.70
2009,05,23,13,15,12.70
2009,05,23,13,16,12.60
2009,05,23,13,17,12.60
2009,05,23,13,18,12.50
2009,05,23,13,19,12.40
2009,05,23,13,20,12.50
2009,05,23,13,21,12.50
2009,05,23,13,22,12.60
2009,05,23,13,23,12.60
2009,05,23,13,24,12.50
2009,05,23,13,25,12.50
2009,05,23,13,26,12.50
2009,05,23,13,27,12.60
2009,05,23,13,28,12.70
2009,05,23,13,29,12.70
2009,05,23,13,30,12.80
2009,05,23,13,31,12.90
2009,05,23,13,32,13.00
2009,05,23,13,33,13.10
2009,05,23,13,34,13.30
2009,05,23,13,35,13.50
2009,05,23,13,36,13.70
2009,05,23,13,37,13.80
2009,05,23,13,38,13.90
2009,05,23,13,39,13.90
2009,05,23,13,40,13.80
2009,05,23,13,41,13.60
2009,05,23,13,42,13.50
2009,05,23,13,43,13.40
2009,05,23,13,44,13.40
2009,05,23,13,45,13.30
2009,05,23,13,46,13.30
2009,05,23,13,47,13.30
2009,05,23,13,48,13.50
2009,05,23,13,49,13.60
2009,05,23,13,50,13.70
2009,05,23,13,51,13.70
2009,05,23,13,52,13.70
2009,05,23,13,53,13.70
2009,05,23,13,54,13.70
2009,05,23,13,55,13.70
2009,05,23,13,56,13.70
2009,05,23,13,57,13.70
2009,05,23,13,58,13.70
2009,05,23,13,59,13.70
2009,05,23,14,00,13.70
2009,05,23,14,01,13.70
2009,05,23,14,02,13.90
2009,05,23,14,03,13.90
2009,05,23,14,04,14.00
2009,05,23,14,05,14.10
2009,05,23,14,06,14.10
2009,05,23,14,07,14.10
2009,05,23,14,08,14.10
2009,05,23,14,09,14.20
2009,05,23,14,10,14.10
2009,05,23,14,11,14.10
2009,05,23,14,12,14.10
2009,05,23,14,13,14.10
2009,05,23,14,14,14.10
2009,05,23,14,15,14.10
2009,05,23,14,16,14.00
2009,05,23,14,17,14.10
2009,05,23,14,18,14.10
2009,05,23,14,19,14.10
2009,05,23,14,20,14.20
2009,05,23,14,21,14.30
2009,05,23,14,22,14.30
2009,05,23,14,23,14.20
2009,05,23,14,24,14.20
2009,05,23,14,25,14.30
2009,05,23,14,26,14.20
2009,05,23,14,27,14.00
2009,05,23,14,28,13.80
2009,05,23,14,29,13.60
2009,05,23,14,30,13.40
2009,05,23,14,31,13.30
2009,05,23,14,32,13.20
2009,05,23,14,33,13.00
2009,05,23,14,34,13.00
2009,05,23,14,35,12.90
2009,05,23,14,36,13.00
2009,05,23,14,37,13.10
2009,05,23,14,38,13.30
2009,05,23,14,39,13.50
2009,05,23,14,40,13.60
2009,05,23,14,41,13.70
2009,05,23,14,42,13.80
2009,05,23,14,43,13.90
2009,05,23,14,44,14.00
2009,05,23,14,45,14.20
2009,05,23,14,46,14.20
2009,05,23,14,47,14.20
2009,05,23,14,48,14.10
2009,05,23,14,49,14.10
2009,05,23,14,50,14.30
2009,05,23,14,51,14.30
2009,05,23,14,52,14.10
2009,05,23,14,53,13.90
2009,05,23,14,54,13.90
2009,05,23,14,55,13.90
2009,05,23,14,56,13.90
2009,05,23,14,57,13.80
2009,05,23,14,58,13.90
2009,05,23,14,59,14.00
2009,05,23,15,00,14.20
2009,05,23,15,01,14.20
2009,05,23,15,02,14.20
2009,05,23,15,03,14.30
2009,05,23,15,04,14.40
2009,05,23,15,05,14.50
2009,05,23,15,06,14.40
2009,05,23,15,07,14.30
2009,05,23,15,08,14.10
2009,05,23,15,09,14.00
2009,05,23,15,10,13.90
2009,05,23,15,11,13.80
2009,05,23,15,12,13.90
2009,05,23,15,13,13.80
2009,05,23,15,14,13.70
2009,05,23,15,15,13.60
2009,05,23,15,16,13.50
2009,05,23,15,17,13.50
2009,05,23,15,18,13.50
2009,05,23,15,19,13.60
2009,05,23,15,20,13.70
2009,05,23,15,21,13.80
2009,05,23,15,22,13.80
2009,05,23,15,23,13.80
2009,05,23,15,24,13.80
2009,05,23,15,25,13.80
2009,05,23,15,26,13.90
2009,05,23,15,27,14.00
2009,05,23,15,28,14.10
2009,05,23,15,29,14.20
2009,05,23,15,30,14.20
2009,05,23,15,31,14.20
2009,05,23,15,32,14.10
2009,05,23,15,33,14.00
2009,05,23,15,34,14.00
2009,05,23,15,35,14.00
2009,05,23,15,36,14.00
2009,05,23,15,37,14.00
2009,05,23,15,38,14.10
2009,05,23,15,39,14.00
2009,05,23,15,40,13.80
2009,05,23,15,41,13.70
2009,05,23,15,42,13.60
2009,05,23,15,43,13.60
2009,05,23,15,44,13.70
2009,05,23,15,45,13.70
2009,05,23,15,46,13.80
2009,05,23,15,47,13.90
2009,05,23,15,48,14.00
2009,05,23,15,49,14.10
2009,05,23,15,50,14.20
2009,05,23,15,51,14.40
2009,05,23,15,52,14.60
2009,05,23,15,53,14.80
2009,05,23,15,54,14.70
2009,05,23,15,55,14.70
2009,05,23,15,56,14.70
2009,05,23,15,57,14.80
2009,05,23,15,58,14.90
2009,05,23,15,59,14.90
2009,05,23,16,00,14.90
2009,05,23,16,01,14.90
2009,05,23,16,02,14.90
2009,05,23,16,03,14.80
2009,05,23,16,04,14.80
2009,05,23,16,05,14.90
2009,05,23,16,06,14.90
2009,05,23,16,07,14.90
2009,05,23,16,08,14.90
2009,05,23,16,09,14.90
2009,05,23,16,10,14.90
2009,05,23,16,11,14.80
2009,05,23,16,12,14.80
2009,05,23,16,13,14.80
2009,05,23,16,14,14.90
2009,05,23,16,15,15.00
2009,05,23,16,16,15.10
2009,05,23,16,17,15.20
2009,05,23,16,18,15.30
2009,05,23,16,19,15.40
2009,05,23,16,20,15.50
2009,05,23,16,21,15.60
2009,05,23,16,22,15.70
2009,05,23,16,23,15.80
2009,05,23,16,24,15.80
2009,05,23,16,25,15.80
2009,05,23,16,26,15.70
2009,05,23,16,27,15.60
2009,05,23,16,28,15.50
2009,05,23,16,29,15.50
2009,05,23,16,30,15.50
2009,05,23,16,31,15.50
2009,05,23,16,32,15.50
2009,05,23,16,33,15.40
2009,05,23,16,34,15.40
2009,05,23,16,35,15.40
2009,05,23,16,36,15.40
2009,05,23,16,37,15.30
2009,05,23,16,38,15.30
2009,05,23,16,39,15.30
2009,05,23,16,40,15.30
2009,05,23,16,41,15.30
2009,05,23,16,42,15.40
2009,05,23,16,43,15.50
2009,05,23,16,44,15.60
2009,05,23,16,45,15.60
2009,05,23,16,46,15.60
2009,05,23,16,47,15.60
2009,05,23,16,48,15.70
2009,05,23,16,49,15.70
2009,05,23,16,50,15.80
2009,05,23,16,51,15.90
2009,05,23,16,52,16.00
2009,05,23,16,53,16.10
2009,05,23,16,54,16.10
2009,05,23,16,55,16.10
2009,05,23,16,56,16.10
2009,05,23,16,57,16.10
2009,05,23,16,58,16.10
2009,05,23,16,59,15.90
2009,05,23,17,00,15.80
2009,05,23,17,01,15.80
2009,05,23,17,02,15.70
2009,05,23,17,03,15.60
2009,05,23,17,04,15.60
2009,05,23,17,05,15.70
2009,05,23,17,06,15.80
2009,05,23,17,07,15.80
2009,05,23,17,08,15.80
2009,05,23,17,09,15.80
2009,05,23,17,10,15.90
2009,05,23,17,11,16.00
2009,05,23,17,12,16.10
2009,05,23,17,13,16.10
2009,05,23,17,14,16.10
2009,05,23,17,15,16.10
2009,05,23,17,16,16.20
2009,05,23,17,17,16.20
2009,05,23,17,18,16.20
2009,05,23,17,19,16.30
2009,05,23,17,20,16.30
2009,05,23,17,21,16.30
2009,05,23,17,22,16.30
2009,05,23,17,23,16.30
2009,05,23,17,24,16.30
2009,05,23,17,25,16.30
2009,05,23,17,26,16.30
2009,05,23,17,27,16.30
2009,05,23,17,28,16.40
2009,05,23,17,29,16.40
2009,05,23,17,30,16.40
2009,05,23,17,31,16.50
2009,05,23,17,32,16.50
2009,05,23,17,33,16.40
2009,05,23,17,34,16.50
2009,05,23,17,35,16.60
2009,05,23,17,36,16.70
2009,05,23,17,37,16.70
2009,05,23,17,38,16.70
2009,05,23,17,39,16.60
2009,05,23,17,40,16.50